This is the latest recevied weather packets stored in our database for station/object SV9TNF-2. If no packets are shown the sender has not sent any weather packets the latest 10 day(s).
| Time | Temp. | Humidity | Pressure | Rain* | Wind** | Luminosity | Snow |
|---|---|---|---|---|---|---|---|
| 1777893022 | 18.33° C | 44% | 1026.4 hPa | 0 mm | 9.39 m/s, 356° | - | - |
| 1777892722 | 18.33° C | 46% | 1026.4 hPa | 0 mm | 9.83 m/s, 4° | - | - |
| 1777892422 | 18.33° C | 44% | 1026.4 hPa | 0 mm | 12.07 m/s, 303° | - | - |
| 1777892122 | 18.33° C | 45% | 1026.4 hPa | 0 mm | 8.05 m/s, 350° | - | - |
| 1777891822 | 17.78° C | 46% | 1026.4 hPa | 0 mm | 8.49 m/s, 322° | - | - |
| 1777891521 | 17.78° C | 48% | 1026.4 hPa | 0 mm | 8.94 m/s, 358° | - | - |
| 1777891221 | 18.33° C | 46% | 1026.4 hPa | 0 mm | 8.05 m/s, 37° | - | - |
| 1777890922 | 18.33° C | 45% | 1026.4 hPa | 0 mm | 8.94 m/s, 316° | - | - |
| 1777890621 | 18.33° C | 46% | 1026.4 hPa | 0 mm | 7.15 m/s, 310° | - | - |
| 1777890321 | 17.78° C | 47% | 1026.4 hPa | 0 mm | 18.33 m/s, 5° | - | - |
| 1777890021 | 18.33° C | 47% | 1026.4 hPa | 0 mm | 5.81 m/s, 38° | - | - |
| 1777889721 | 17.78° C | 48% | 1026.4 hPa | 0 mm | 20.12 m/s, 54° | - | - |
| 1777889420 | 18.33° C | 49% | 1026.4 hPa | 0 mm | 6.71 m/s, 359° | - | - |
| 1777889121 | 18.33° C | 46% | 1026.4 hPa | 0 mm | 15.65 m/s, 7° | - | - |
| 1777888821 | 17.78° C | 48% | 1026.4 hPa | 0 mm | 10.28 m/s, 35° | - | - |
| 1777888520 | 18.33° C | 49% | 1026.4 hPa | 0 mm | 9.39 m/s, 29° | - | - |
| 1777888220 | 16.67° C | 51% | 1026.4 hPa | 0 mm | 8.05 m/s, 344° | - | - |
| 1777887920 | 17.78° C | 48% | 1026.4 hPa | 0 mm | 11.62 m/s, 36° | - | - |
| 1777887620 | 17.78° C | 51% | 1026.4 hPa | 0 mm | 15.65 m/s, 14° | - | - |
| 1777887320 | 18.33° C | 51% | 1026.4 hPa | 0 mm | 7.6 m/s, 3° | - | - |
| 1777887020 | 18.33° C | 53% | 1026.4 hPa | 0 mm | 14.31 m/s, 348° | - | - |
| 1777886720 | 17.22° C | 50% | 1026.4 hPa | 0 mm | 15.2 m/s, 84° | - | - |
| 1777886420 | 17.78° C | 50% | 1026.4 hPa | 0 mm | 10.28 m/s, 1° | - | - |
| 1777886120 | 18.33° C | 49% | 1026.4 hPa | 0 mm | 11.18 m/s, 345° | - | - |
| 1777885820 | 17.22° C | 49% | 1026.4 hPa | 0 mm | 12.07 m/s, 8° | - | - |
* Rain latest hour (hover to see other rain measurements)
** Current wind speed in m/s (hover to see current wind gust speed)